Location: ?????
(42.2640°N, 43.4211°E)
Time: 15:25:48
(UTC+00:00)

Meteor 2-10 - Pass Details

Date: 07 August 2020
Orbit: 738 x 869 km, 81.2° (Epoch: 19 September)

Event Time Altitude Azimuth Distance (km) Brightness Sun altitude
Exits shadow 00:48:16 15° 207° (SSW) 2,031 5.6 -13.2°
Maximum altitude 00:52:37 57° 283° (WNW) 971 4.3 -12.5°
Drops below altitude 10° 00:58:08 10° 2° (N) 2,476 7.2 -11.7°
Sets 01:00:40 0° 7° (N) 3,431 8.0 -11.3°
